星链-3991 (STARLINK-3991 )

导读

STARLINK-3991是美国太空探索技术公司星链计划中的卫星,于2022年5月14日发射升空,属于低轨通信卫星,用于推进全球卫星互联网组网建设,承担全球偏远区域网络覆盖,提升网络服务的广度与密度,完善星链卫星互联网系统的通信服务能力。

基本信息
目录编号:
52641
目录名称:
STARLINK-3991
国际标识:
2022-052AV
轨道中心:
EARTH
卫星名称:
星链-3991
卫星全名:
星链-3991 (STARLINK-3991 )
卫星状态:
在轨 (已飞行1495 天)
发射日期:
2022-05-14 UTC
国别 :
美国 (US)
星等 :
--
轨道信息
数据来源 国际轨道数据 AOE轨道数据
星历时间 2026-06-17T01:01:51+0800
20小时前
查看轨道信息
2026-06-15T07:00:00+0800
2天前
查看轨道信息
半长轴 6917.907km 6917.888km
偏心率 0.0001271 0.0001172
轨道倾角 53.160° 53.159°
近地点辐角 82.715° 65.449°
升交点赤经 174.712° 182.588°
平近点角 277.398° 136.839°
近地点 538.89km 538.94km
远地点 540.65km 540.562km
周期 95.438分钟 95.438分钟
每日圈数 15.088314 15.088376
详细信息
固有亮度:
5
最大亮度:
2.5
卫星平台:
Starlink v1.5
覆盖范围:
全球
运营商:
太空探索技术公司
运营商所在国:
美国
制造商(研发单位):
太空探索技术公司
制造商所在国:
美国
使用方式:
暂无
卫星简介
星链(Starlink)计划是由太空探索技术公司(SpaceX)提出的一个巨型低轨卫星互联网星座项目,计划在2019年至2024年间在太空搭建由约1.2万颗卫星组成的“星链”网络,其中1584颗将部署在地球上空550千米处的近地轨道,并从2020年开始工作。该卫星仍在工作。
2D轨道图
3D轨道图
轨道高度分析图
轨道倾角分析图
轨道综合分析图
查看轨道综合分析图